1517108400.77,17881,9.13,74004.5,-8.03,-34.47,-32.63,0,*5C
1517108402.03,17882,9.13,74006.8,-8.03,-33.67,-31.91,0,*54
1517108403.27,17883,9.13,73996.8,-8.05,-33.83,-32.07,0,*55
1517108404.53,17884,9.13,73980.3,-8.03,-34.07,-32.29,0,*53
1517108405.77,17885,9.13,73974.5,-8.05,-34.07,-32.29,0,*54
1517108407.04,17886,9.13,73982.5,-8.03,-33.83,-32.07,0,*56
1517108408.27,17887,9.13,73982.8,-8.03,-33.55,-31.79,0,*56
1517108409.53,17888,9.13,73976.5,-8.03,-33.95,-32.29,0,*53
1517108410.79,17889,9.13,73980.8,-8.03,-34.13,-32.29,0,*5B
1517108412.03,17890,9.13,73982.8,-8.03,-34.07,-32.23,0,*5C
1517108413.29,17891,9.13,73982.8,-8.01,-33.89,-32.07,0,*58
1517108414.56,17892,9.13,73982.5,-8.01,-34.01,-32.07,0,*5C
1517108415.79,17893,9.13,73978.5,-8.03,-33.95,-32.13,0,*50
1517108417.03,17894,9.13,73976.0,-8.01,-34.01,-32.01,0,*5C
1517108418.3,17895,9.13,73980.5,-8.01,-34.01,-32.07,0,*5B
1517108419.51,17896,9.13,73982.0,-8.01,-33.83,-32.01,0,*53
1517108420.77,17897,9.13,73982.3,-8.01,-33.61,-31.85,0,*51
1517108422.01,17898,9.13,73990.3,-8.01,-33.67,-31.91,0,*5D
1517108423.25,17899,9.13,73990.5,-8.01,-33.83,-32.19,0,*55
1517108424.49,17900,9.13,73998.3,-8.01,-33.67,-31.91,0,*5D
1517108425.7,17901,9.13,74000.5,-8.01,-33.67,-32.01,0,*56
1517108426.94,17902,9.13,74002.5,-8.01,-33.67,-32.07,0,*53
1517108428.2,17903,9.13,73998.8,-8.03,-34.07,-32.29,0,*5D
1517108429.45,17904,9.13,73992.3,-8.01,-34.01,-32.39,0,*5F
1517108430.69,17905,9.13,73974.8,-8.01,-34.01,-32.35,0,*52
1517108431.95,17906,9.13,73986.8,-8.01,-34.01,-32.19,0,*5F
1517108433.22,17907,9.13,73986.8,-8.01,-33.89,-32.19,0,*59
1517108434.46,17908,9.19,73994.0,-8.01,-33.83,-32.19,0,*5C
1517108435.7,17909,9.13,74006.5,-8.01,-33.83,-32.07,0,*52
1517108436.97,17910,9.13,74008.0,-8.03,-33.67,-31.95,0,*5A
1517108438.2,17911,9.13,74012.0,-8.01,-33.77,-32.01,0,*56
1517108439.42,17912,9.13,74012.0,-8.01,-33.67,-32.01,0,*54
1517108440.68,17913,9.13,74016.8,-8.01,-33.77,-32.07,0,*52
1517108441.96,17914,9.13,74018.8,-8.03,-33.89,-32.29,0,*5A
1517108443.19,17915,9.13,74016.0,-8.01,-33.89,-32.23,0,*53
1517108444.46,17916,9.13,74012.8,-8.03,-34.07,-32.45,0,*53
1517108445.73,17917,9.13,74018.0,-8.03,-34.13,-32.45,0,*57
1517108446.99,17918,9.13,74026.5,-8.03,-34.13,-32.29,0,*52
1517108448.23,17919,9.13,74016.0,-8.03,-34.07,-32.23,0,*5C
1517108449.47,17920,9.13,74014.8,-8.03,-34.07,-32.13,0,*55
1517108450.73,17921,9.13,74014.0,-8.03,-34.13,-32.07,0,*54
1517108451.95,17922,9.13,74012.8,-8.05,-34.07,-32.13,0,*51
1517108453.16,17923,9.13,74004.8,-8.01,-34.07,-32.01,0,*57
1517108454.43,17924,9.13,74006.8,-8.03,-34.07,-32.07,0,*54
1517108455.67,17925,9.13,74004.3,-8.01,-34.07,-32.07,0,*57
1517108456.94,17926,9.13,74004.3,-8.03,-34.07,-32.07,0,*56
1517108458.21,17927,9.13,74000.0,-8.03,-33.95,-32.07,0,*5B
1517108459.44,17928,9.13,74000.3,-8.05,-33.83,-31.61,0,*56
1517108460.71,17929,9.13,74004.3,-8.03,-33.83,-31.91,0,*5E
1517108462.0,17930,9.13,73998.8,-8.03,-33.73,-31.61,0,*56
1517108463.26,17931,9.13,74000.3,-8.03,-33.83,-31.57,0,*5D
1517108464.55,17932,9.13,74006.5,-8.03,-33.73,-31.51,0,*57
1517108465.84,17933,9.13,74002.3,-8.03,-33.73,-31.57,0,*50
1517108467.14,17934,9.13,74000.8,-8.03,-33.73,-31.61,0,*52
1517108468.37,17935,9.13,74002.5,-8.03,-33.83,-31.79,0,*55
1517108469.66,17936,9.13,74006.3,-8.03,-33.73,-31.57,0,*55
1517108470.92,17937,9.13,74004.5,-8.01,-33.77,-31.73,0,*54
1517108472.18,17938,9.13,74006.3,-8.01,-33.89,-31.85,0,*53
1517108473.43,17939,9.13,73998.5,-8.01,-33.77,-31.57,0,*5C
1517108474.67,17940,9.13,74000.8,-8.01,-33.67,-31.57,0,*53
1517108475.93,17941,9.13,73992.8,-8.03,-33.83,-31.61,0,*5F
1517108477.19,17942,9.13,73996.0,-8.03,-33.83,-31.57,0,*59
1517108478.49,17943,9.13,73996.5,-8.03,-33.73,-31.51,0,*51
1517108479.73,17944,9.13,73992.5,-8.01,-33.49,-31.29,0,*52
1517108481.01,17945,9.13,73996.0,-7.99,-33.77,-31.57,0,*59
1517108482.27,17946,9.13,74002.0,-8.01,-33.77,-31.73,0,*52
1517108483.5,17947,9.13,74002.0,-8.05,-33.89,-31.79,0,*5C
1517108484.76,17948,9.13,74006.8,-8.03,-33.89,-31.79,0,*55
1517108486.01,17949,9.13,74016.5,-8.03,-33.89,-31.79,0,*54
1517108487.28,17950,9.13,74022.0,-8.03,-33.83,-31.61,0,*5F
1517108488.54,17951,9.13,74022.3,-8.03,-33.83,-31.61,0,*5E
1517108489.81,17952,9.19,74020.8,-8.03,-33.67,-31.61,0,*57
1517108491.02,17953,9.13,74028.5,-8.05,-33.67,-31.79,0,*59
1517108492.25,17954,9.13,74030.8,-8.05,-33.67,-31.57,0,*52
1517108493.51,17955,9.13,74030.0,-8.05,-33.31,-31.39,0,*58
1517108494.8,17956,9.13,74034.5,-8.03,-33.31,-31.39,0,*5D
1517108496.08,17957,9.13,74032.0,-8.03,-33.49,-31.57,0,*5B
1517108497.35,17958,9.13,74030.5,-8.03,-33.73,-31.79,0,*51
1517108498.62,17959,9.13,74030.5,-8.05,-33.73,-31.91,0,*50
1517108499.88,17960,9.13,74036.3,-8.03,-33.73,-31.79,0,*5A
1517108501.12,17961,9.13,74036.8,-8.05,-33.67,-31.61,0,*51
1517108502.35,17962,9.13,74034.3,-8.05,-33.55,-31.57,0,*56
1517108503.56,17963,9.13,74022.8,-8.05,-33.37,-31.33,0,*51
1517108504.85,17964,9.13,74020.5,-8.03,-33.31,-31.23,0,*57
1517108506.09,17965,9.13,74024.0,-8.05,-33.37,-31.39,0,*5D
1517108507.3,17966,9.13,74030.3,-8.05,-33.37,-31.33,0,*54
1517108508.54,17967,9.13,74034.3,-8.03,-33.37,-31.33,0,*53
1517108509.78,17968,9.13,74030.3,-8.03,-33.37,-31.33,0,*5C
1517108511.02,17969,9.13,74034.5,-8.03,-33.03,-30.83,0,*50
1517108512.31,17970,9.13,74032.5,-8.03,-32.75,-30.51,0,*57
1517108513.52,17971,9.13,74030.0,-8.01,-32.39,-30.27,0,*5D
1517108514.76,17972,9.13,74016.5,-8.01,-32.57,-30.51,0,*57
1517108516.02,17973,9.13,74016.5,-8.01,-32.19,-30.05,0,*5D
1517108517.32,17974,9.13,74010.8,-7.99,-32.75,-30.61,0,*5C
1517108518.56,17975,9.13,74002.0,-7.97,-32.91,-30.77,0,*5E
1517108519.8,17976,9.13,73992.0,-7.97,-32.91,-30.77,0,*5D
1517108521.04,17977,9.13,73990.3,-7.97,-33.03,-30.95,0,*5A
1517108522.27,17978,9.13,73988.8,-7.97,-33.21,-31.11,0,*58
1517108523.51,17979,9.13,73986.8,-7.97,-33.37,-31.11,0,*5E
1517108524.75,17980,9.13,73984.3,-7.99,-33.15,-31.17,0,*50
1517108525.99,17981,9.13,73980.0,-7.99,-33.15,-31.17,0,*51
1517108527.23,17982,9.13,73980.5,-7.99,-33.15,-31.17,0,*52
1517108528.49,17983,9.13,73984.3,-8.01,-33.27,-31.11,0,*5A
1517108529.75,17984,9.13,73988.8,-7.99,-33.15,-31.11,0,*52
1517108531.04,17985,9.13,73998.3,-7.99,-32.79,-30.95,0,*55
1517108532.29,17986,9.13,73998.5,-8.01,-32.91,-30.77,0,*52
1517108533.49,17987,9.13,73996.5,-8.01,-32.91,-31.01,0,*53
1517108534.73,17988,9.13,73998.0,-7.99,-32.91,-31.01,0,*52
1517108536.02,17989,9.13,74002.3,-7.99,-32.79,-30.95,0,*59
1517108537.28,17990,9.13,74008.3,-7.99,-32.91,-31.11,0,*5A
1517108538.54,17991,9.13,74008.8,-7.97,-32.75,-30.95,0,*52
1517108539.78,17992,9.13,74010.3,-7.99,-32.91,-31.01,0,*59
1517108541.01,17993,9.13,74014.5,-7.99,-32.91,-31.01,0,*58
1517108542.25,17994,9.13,74012.5,-7.99,-32.91,-31.17,0,*58
1517108543.49,17995,9.13,74016.3,-7.99,-32.91,-31.17,0,*59
1517108544.78,17996,9.13,74020.0,-7.99,-32.79,-31.11,0,*5A
1517108546.02,17997,9.13,74018.5,-8.01,-32.91,-31.11,0,*53
1517108547.29,17998,9.13,74016.8,-7.99,-32.79,-31.17,0,*52
1517108548.53,17999,9.13,74012.3,-8.01,-32.97,-31.29,0,*50
1517108549.79,18000,9.13,74018.3,-7.99,-33.09,-31.33,0,*55
1517108551.05,18001,9.13,74022.8,-7.99,-32.97,-31.29,0,*59
1517108552.29,18002,9.13,74020.8,-8.01,-32.97,-31.33,0,*5F
1517108553.53,18003,9.13,74022.0,-8.01,-32.79,-31.29,0,*55
1517108554.77,18004,9.13,74020.8,-8.01,-32.75,-31.17,0,*53
1517108556.04,18005,9.13,74020.5,-8.01,-32.75,-31.11,0,*54
1517108557.25,18006,9.13,74024.3,-8.01,-32.91,-31.33,0,*5D
1517108558.48,18007,9.13,74020.0,-8.01,-32.97,-31.29,0,*51
1517108559.72,18008,9.19,74022.3,-8.01,-32.97,-31.29,0,*5E
1517108560.98,18009,9.13,74012.0,-8.03,-33.03,-31.39,0,*50
1517108562.24,18010,9.13,74010.0,-8.03,-33.03,-31.39,0,*58
1517108563.54,18011,9.13,74004.0,-8.03,-32.85,-31.23,0,*5D
1517108564.82,18012,9.13,74004.3,-8.03,-32.97,-31.23,0,*5D
1517108566.12,18013,9.13,73992.5,-8.03,-32.85,-31.23,0,*5F
1517108567.41,18014,9.13,73984.0,-8.03,-32.79,-31.23,0,*5B
1517108568.68,18015,9.13,73986.5,-8.03,-32.79,-31.17,0,*5D
1517108569.97,18016,9.13,73990.0,-8.03,-32.79,-31.23,0,*59
1517108571.26,18017,9.19,74002.3,-8.03,-32.85,-31.23,0,*5B
1517108572.52,18018,9.13,73994.5,-8.03,-32.85,-31.33,0,*55
1517108573.82,18019,9.13,73994.3,-8.03,-32.75,-31.23,0,*5A
1517108575.08,18020,9.13,73996.5,-8.03,-32.63,-31.17,0,*50
1517108576.32,18021,9.13,73998.0,-8.05,-32.63,-31.17,0,*57
1517108577.59,18022,9.13,74000.0,-8.03,-32.57,-31.23,0,*52
1517108578.83,18023,9.13,73998.3,-8.05,-32.57,-31.23,0,*55
1517108580.09,18024,9.13,73998.3,-8.03,-32.45,-31.17,0,*50
1517108581.35,18025,9.13,74000.3,-8.03,-32.45,-31.05,0,*52
1517108582.56,18026,9.13,74008.3,-8.05,-32.39,-31.17,0,*5F
1517108583.77,18027,9.13,74008.5,-8.05,-32.39,-31.05,0,*5D
1517108585.0,18028,9.13,74010.8,-8.05,-32.29,-31.17,0,*50
1517108586.24,18029,9.13,74006.0,-8.03,-32.13,-31.17,0,*5E
1517108587.5,18030,9.13,74014.0,-8.03,-32.29,-31.05,0,*5C
1517108588.76,18031,9.13,74022.0,-8.05,-32.29,-31.23,0,*5F
1517108590.02,18032,9.13,74020.3,-8.05,-32.45,-31.39,0,*5D
1517108591.22,18033,9.13,74026.0,-8.05,-32.23,-31.33,0,*56
1517108592.42,18034,9.13,74016.5,-8.05,-32.23,-31.33,0,*51
1517108593.68,18035,9.13,74012.0,-8.05,-32.29,-31.39,0,*50
1517108594.91,18036,9.13,74014.0,-8.05,-32.39,-31.39,0,*52
1517108596.12,18037,9.13,74016.5,-8.05,-32.39,-31.33,0,*59
1517108597.33,18038,9.13,74018.5,-8.05,-32.23,-31.33,0,*5D
1517108598.56,18039,9.13,74016.3,-8.05,-32.29,-31.33,0,*56
1517108599.78,18040,9.13,74022.8,-8.05,-32.29,-31.33,0,*58
1517108601.02,18041,9.13,74018.5,-8.07,-32.13,-31.17,0,*54
1517108602.29,18042,9.13,74014.0,-8.05,-32.07,-31.23,0,*57
1517108603.53,18043,9.13,74008.3,-8.05,-32.13,-31.23,0,*53
1517108604.77,18044,9.13,74010.8,-8.05,-32.07,-31.17,0,*56
1517108606.04,18045,9.13,73998.3,-8.07,-31.73,-30.83,0,*59
1517108607.28,18046,9.13,73990.0,-8.05,-31.39,-30.67,0,*5C
1517108608.53,18047,9.13,73996.5,-8.05,-31.61,-30.83,0,*5A
1517108609.79,18048,9.13,73992.5,-8.03,-31.73,-31.05,0,*5F
1517108611.08,18049,9.13,73994.3,-8.03,-31.91,-31.23,0,*56
1517108612.37,18050,9.13,74000.5,-8.03,-31.91,-31.23,0,*5E
1517108613.64,18051,9.13,74002.0,-8.05,-31.73,-31.23,0,*55
1517108614.91,18052,9.13,74000.0,-8.05,-31.73,-31.23,0,*56
1517108616.17,18053,9.13,74000.8,-8.03,-31.79,-31.23,0,*5B
1517108617.41,18054,9.13,73996.8,-8.05,-31.91,-31.33,0,*5D
1517108618.67,18055,9.13,74000.3,-8.05,-31.91,-31.39,0,*56
1517108619.9,18056,9.13,74006.3,-8.05,-31.73,-31.33,0,*53
1517108621.17,18057,9.13,74008.0,-8.03,-31.61,-31.33,0,*57
1517108622.4,18058,9.13,73992.0,-8.05,-31.79,-31.39,0,*5D
1517108623.64,18059,9.13,73998.3,-8.05,-31.79,-31.39,0,*5C
1517108624.9,18060,9.13,73998.8,-8.05,-31.91,-31.51,0,*5E
1517108626.17,18061,9.13,73998.8,-8.05,-31.61,-31.23,0,*55
1517108627.43,18062,9.13,74004.0,-8.03,-31.79,-31.57,0,*5A
1517108628.71,18063,9.13,74006.8,-8.07,-31.91,-31.57,0,*59
1517108629.97,18064,9.19,74018.3,-8.05,-31.73,-31.39,0,*58
1517108631.21,18065,9.13,74012.8,-8.05,-31.61,-31.33,0,*50
1517108632.5,18066,9.13,74004.5,-8.07,-31.73,-31.51,0,*56
1517108633.78,18067,9.13,74008.8,-8.11,-31.57,-31.57,0,*50
1517108635.05,18068,9.13,74008.5,-8.05,-31.61,-31.61,0,*5A
1517108636.31,18069,9.13,74014.3,-8.05,-31.73,-31.91,0,*57
1517108637.57,18070,9.13,74016.8,-8.05,-31.91,-31.91,0,*53
1517108638.83,18071,9.13,74020.8,-8.05,-31.73,-31.95,0,*5A
1517108640.07,18072,9.19,74016.8,-8.05,-31.61,-31.79,0,*58
1517108641.36,18073,9.13,74010.0,-8.07,-31.57,-31.61,0,*57
1517108642.64,18074,9.13,74006.3,-8.07,-31.57,-31.57,0,*55
1517108643.92,18075,9.13,73988.8,-8.07,-31.51,-31.57,0,*52
1517108645.21,18076,9.13,73984.5,-8.07,-31.57,-31.61,0,*52
1517108646.49,18077,9.13,73988.3,-8.07,-31.39,-31.57,0,*5E
1517108647.77,18078,9.13,74000.0,-8.07,-31.39,-31.57,0,*51
1517108649.06,18079,9.13,74004.8,-8.11,-31.57,-31.95,0,*51
1517108650.36,18080,9.13,74010.3,-8.07,-31.57,-31.95,0,*50
1517108651.62,18081,9.13,74012.0,-8.11,-31.57,-32.01,0,*58
1517108652.91,18082,9.13,74012.3,-8.07,-31.23,-31.61,0,*5A
1517108654.15,18083,9.13,74016.5,-8.05,-31.23,-31.79,0,*50
1517108655.43,18084,9.13,74016.0,-8.07,-31.39,-31.95,0,*5C
1517108656.7,18085,9.13,74020.3,-8.07,-31.45,-32.07,0,*5E
1517108657.94,18086,9.13,74024.0,-8.07,-31.17,-31.79,0,*50
1517108659.2,18087,9.13,74018.5,-8.07,-31.23,-31.79,0,*56
1517108660.43,18088,9.13,74012.3,-8.07,-31.05,-31.79,0,*5D
1517108661.69,18089,9.13,74016.0,-8.07,-31.33,-31.91,0,*5F
1517108662.97,18090,9.13,74008.3,-8.07,-30.89,-31.57,0,*5D
1517108664.21,18091,9.13,74002.0,-8.11,-31.29,-32.13,0,*53
1517108665.44,18092,9.13,73990.8,-8.07,-31.33,-32.13,0,*5C
1517108666.67,18093,9.13,73994.0,-8.11,-31.29,-32.13,0,*51
1517108667.94,18094,9.13,73988.3,-8.07,-31.17,-31.95,0,*51
1517108669.2,18095,9.13,73994.8,-8.07,-31.05,-31.95,0,*53
1517108670.46,18096,9.19,74002.5,-8.07,-31.17,-31.95,0,*53
1517108671.75,18097,9.13,74004.8,-8.11,-31.23,-32.19,0,*55
1517108672.98,18098,9.13,74008.8,-8.07,-31.05,-32.13,0,*53
1517108674.27,18099,9.13,74010.5,-8.07,-31.23,-32.29,0,*5F
1517108675.51,18100,9.13,74010.3,-8.11,-31.29,-32.35,0,*5E
1517108676.74,18101,9.13,74012.3,-8.07,-31.05,-32.23,0,*51
1517108678.03,18102,9.13,74018.3,-8.11,-31.23,-32.45,0,*51
1517108679.29,18103,9.19,74014.3,-8.11,-31.45,-32.45,0,*50
1517108680.56,18104,9.13,74010.0,-8.11,-31.39,-32.51,0,*59
1517108681.82,18105,9.13,74008.5,-8.11,-31.39,-32.51,0,*58
1517108683.11,18106,9.13,74010.5,-8.11,-31.11,-32.45,0,*54
1517108684.37,18107,9.13,74010.3,-8.11,-31.05,-32.19,0,*59
1517108685.63,18108,9.19,74012.5,-8.07,-31.17,-32.29,0,*51
1517108686.9,18109,9.13,74012.5,-8.11,-31.23,-32.51,0,*5F
1517108688.14,18110,9.13,74018.5,-8.11,-31.29,-32.51,0,*5D
1517108689.4,18111,9.19,74022.8,-8.11,-31.29,-32.63,0,*5D
1517108690.69,18112,9.13,74010.0,-8.11,-31.23,-32.63,0,*54
1517108691.98,18113,9.13,74008.5,-8.07,-31.23,-32.63,0,*52
1517108693.26,18114,9.13,74014.0,-8.11,-31.39,-32.63,0,*59
1517108694.48,18115,9.13,74008.8,-8.13,-31.29,-32.69,0,*51
1517108695.72,18116,9.13,74008.5,-8.13,-31.29,-32.75,0,*5F
1517108696.96,18117,9.13,74006.5,-8.13,-31.45,-32.85,0,*5B
1517108698.23,18118,9.13,74002.5,-8.15,-31.45,-32.85,0,*52
1517108699.47,18119,9.13,74000.5,-8.13,-31.29,-32.75,0,*50
1517108700.68,18120,9.13,74002.3,-8.13,-31.01,-32.69,0,*5D
1517108701.9,18121,9.13,74002.8,-8.13,-31.01,-32.51,0,*57
1517108703.11,18122,9.13,73996.3,-8.13,-30.83,-32.35,0,*5D
1517108704.34,18123,9.13,73992.0,-8.13,-30.95,-32.39,0,*57
1517108705.59,18124,9.13,73990.3,-8.13,-31.11,-32.69,0,*58
1517108706.83,18125,9.13,73992.5,-8.13,-31.17,-32.75,0,*52
1517108708.04,18126,9.13,73996.5,-8.13,-31.01,-32.69,0,*5B
1517108709.27,18127,9.13,73998.3,-8.11,-31.05,-32.69,0,*5C
1517108710.53,18128,9.13,73996.3,-8.11,-31.05,-32.63,0,*59
1517108711.77,18129,9.13,74002.3,-8.13,-31.11,-32.69,0,*55
1517108713.04,18130,9.13,73998.3,-8.13,-31.11,-32.75,0,*50
1517108714.25,18131,9.13,73994.5,-8.13,-31.29,-32.91,0,*50
1517108715.49,18132,9.13,73994.8,-8.13,-31.29,-32.97,0,*55
1517108716.75,18133,9.13,73990.0,-8.13,-31.11,-32.85,0,*5C
1517108718.02,18134,9.13,73994.5,-8.15,-31.11,-32.91,0,*58
1517108719.29,18135,9.13,73998.8,-8.13,-31.11,-32.75,0,*55
1517108720.5,18136,9.13,73996.3,-8.13,-31.01,-32.91,0,*5D
1517108721.71,18137,9.13,74000.3,-8.13,-31.17,-32.91,0,*5B
1517108722.95,18138,9.19,74010.0,-8.13,-31.29,-33.09,0,*59
1517108724.18,18139,9.13,74002.5,-8.13,-31.29,-33.09,0,*58
1517108725.45,18140,9.13,74008.0,-8.11,-31.11,-33.03,0,*55
1517108726.68,18141,9.13,74012.3,-8.13,-31.01,-32.75,0,*57
1517108727.89,18142,9.13,74018.3,-8.13,-29.95,-31.67,0,*50
1517108729.11,18143,9.13,74004.8,-8.13,-29.79,-31.45,0,*53
1517108730.36,18144,9.13,73996.8,-8.11,-30.05,-31.67,0,*55
1517108731.62,18145,9.13,73994.0,-8.07,-30.11,-31.91,0,*5F
1517108732.85,18146,9.13,73986.3,-8.05,-30.45,-32.29,0,*5F
1517108734.08,18147,9.13,73982.3,-8.07,-30.45,-32.39,0,*5D
1517108735.34,18148,9.13,73976.8,-8.07,-30.55,-32.39,0,*53
1517108736.59,18149,9.13,73972.0,-8.07,-30.55,-32.39,0,*52
1517108737.85,18150,9.13,73974.3,-8.05,-30.51,-32.45,0,*57
1517108739.1,18151,9.13,73976.5,-8.05,-30.55,-32.45,0,*52
1517108740.34,18152,9.13,73974.3,-8.05,-30.83,-32.63,0,*5E
1517108741.59,18153,9.13,73968.0,-8.05,-30.89,-32.97,0,*5E
1517108742.86,18154,9.13,73972.3,-8.05,-30.89,-32.85,0,*5A
1517108744.12,18155,9.13,73984.8,-8.03,-30.83,-32.85,0,*57
1517108745.39,18156,9.13,73984.3,-8.05,-30.89,-32.85,0,*58
1517108746.62,18157,9.13,73988.0,-8.05,-30.89,-33.03,0,*56
1517108747.85,18158,9.13,73992.5,-8.05,-30.89,-33.15,0,*5E
1517108749.06,18159,9.13,74000.8,-8.05,-31.05,-33.21,0,*5D
1517108750.26,18160,9.13,73998.8,-8.05,-31.01,-33.21,0,*53
1517108751.5,18161,9.13,74000.0,-8.05,-30.89,-33.15,0,*54
1517108752.73,18162,9.13,74004.3,-8.05,-30.83,-32.97,0,*56
1517108753.93,18163,9.13,74008.8,-8.05,-31.01,-33.21,0,*50
1517108755.14,18164,9.13,74004.0,-8.05,-31.05,-33.15,0,*54
1517108756.37,18165,9.13,73998.5,-8.05,-30.89,-33.15,0,*50
1517108757.61,18166,9.13,73992.3,-8.05,-31.17,-33.31,0,*53
1517108758.84,18167,9.13,73986.0,-8.05,-31.17,-33.31,0,*52
1517108760.08,18168,9.13,73984.5,-8.05,-31.23,-33.37,0,*5C
1517108761.37,18169,9.13,73984.3,-8.07,-31.23,-33.49,0,*56
1517108762.63,18170,9.19,73986.3,-8.07,-31.33,-33.31,0,*50
1517108763.9,18171,9.13,73988.8,-8.07,-31.23,-33.37,0,*56
1517108765.14,18172,9.19,73990.5,-8.07,-31.33,-33.37,0,*54
1517108766.41,18173,9.13,73988.5,-8.11,-31.11,-33.37,0,*52
1517108767.68,18174,9.13,73988.5,-8.07,-31.23,-33.37,0,*53
1517108768.91,18175,9.13,73988.8,-8.07,-31.33,-33.37,0,*53
1517108770.17,18176,9.13,73980.8,-8.07,-31.33,-33.49,0,*59
1517108771.44,18177,9.13,73982.8,-8.07,-31.23,-33.37,0,*50
1517108772.71,18178,9.13,73984.3,-8.11,-31.29,-33.43,0,*51
1517108773.97,18179,9.13,73988.0,-8.07,-31.17,-33.49,0,*50
1517108775.23,18180,9.19,73988.0,-8.11,-31.29,-33.43,0,*56
1517108776.47,18181,9.13,73992.5,-8.11,-31.29,-33.55,0,*50
1517108777.73,18182,9.13,74002.3,-8.11,-31.11,-33.37,0,*5C
1517108779.03,18183,9.13,74010.3,-8.11,-31.11,-33.43,0,*5E
1517108780.27,18184,9.13,74010.8,-8.07,-31.17,-33.37,0,*5B
1517108781.56,18185,9.13,74004.5,-8.11,-30.95,-33.27,0,*57
1517108782.85,18186,9.13,74004.3,-8.11,-31.11,-33.49,0,*51
1517108784.13,18187,9.19,74014.8,-8.11,-31.23,-33.61,0,*5B
1517108785.4,18188,9.13,74004.5,-8.07,-31.23,-33.67,0,*55
1517108786.69,18189,9.13,74004.3,-8.11,-31.57,-33.73,0,*55
1517108787.97,18190,9.19,74008.0,-8.11,-31.57,-33.77,0,*59
1517108789.26,18191,9.13,74010.8,-8.07,-31.51,-33.89,0,*58
1517108790.54,18192,9.13,74016.8,-8.11,-31.57,-33.77,0,*5B
1517108791.81,18193,9.13,74020.0,-8.11,-31.45,-33.77,0,*59
1517108793.06,18194,9.13,74022.0,-8.11,-31.29,-33.61,0,*53
1517108794.33,18195,9.13,74024.3,-8.11,-31.11,-33.55,0,*5E
1517108795.62,18196,9.13,74022.0,-8.11,-31.11,-33.43,0,*5A
1517108796.88,18197,9.13,74016.5,-8.11,-31.23,-33.55,0,*5D
1517108798.12,18198,9.13,74020.0,-8.11,-31.05,-33.37,0,*52
1517108799.38,18199,9.13,74016.5,-8.11,-30.77,-32.91,0,*5A
1517108800.67,18200,9.13,74016.5,-8.07,-30.73,-32.79,0,*5C
1517108801.95,18201,9.13,73996.8,-8.07,-30.55,-32.75,0,*55
1517108803.22,18202,9.13,73992.5,-8.07,-30.27,-32.45,0,*50
1517108804.48,18203,9.13,73988.8,-8.07,-30.33,-32.45,0,*54
1517108805.74,18204,9.13,73986.3,-8.03,-30.67,-32.79,0,*59
1517108806.98,18205,9.13,73974.3,-8.01,-30.83,-32.97,0,*50
1517108808.21,18206,9.19,73970.8,-8.03,-31.01,-33.15,0,*51
1517108809.44,18207,9.13,73962.0,-8.01,-31.01,-33.27,0,*53
1517108810.68,18208,9.13,73958.5,-8.01,-31.01,-33.27,0,*5C
1517108811.94,18209,9.13,73958.5,-7.99,-31.01,-33.31,0,*54
1517108813.21,18210,9.13,73968.3,-8.01,-31.11,-33.27,0,*54
1517108814.45,18211,9.13,73966.5,-8.01,-31.17,-33.49,0,*5B
1517108815.68,18212,9.13,73968.5,-8.01,-31.29,-33.49,0,*55
1517108816.92,18213,9.19,73972.8,-8.01,-31.45,-33.61,0,*54
1517108818.15,18214,9.13,73968.3,-8.01,-31.51,-33.67,0,*50
1517108819.39,18215,9.13,73990.0,-8.01,-31.51,-33.67,0,*51
1517108820.65,18216,9.13,73986.5,-8.01,-31.51,-33.77,0,*53
1517108821.89,18217,9.19,73992.0,-8.01,-31.57,-33.83,0,*5F
1517108823.1,18218,9.13,73988.5,-8.01,-31.45,-33.67,0,*59
1517108824.34,18219,9.13,73988.5,-8.01,-31.57,-33.83,0,*51
1517108825.55,18220,9.19,73980.3,-8.01,-31.67,-33.83,0,*58
1517108826.75,18221,9.13,73976.5,-8.01,-31.67,-33.83,0,*59
1517108827.98,18222,9.13,73972.0,-8.01,-31.67,-33.77,0,*51
1517108829.25,18223,9.13,73970.8,-8.01,-31.57,-33.77,0,*53
1517108830.51,18224,9.13,73976.3,-8.03,-31.79,-33.89,0,*5B
1517108831.74,18225,9.19,73980.3,-8.03,-31.79,-33.95,0,*57
1517108833.0,18226,9.13,73980.0,-8.05,-31.73,-33.89,0,*55
1517108834.29,18227,9.13,73986.3,-8.03,-31.73,-33.89,0,*52
1517108835.52,18228,9.13,73988.8,-8.03,-31.79,-33.95,0,*5A
1517108836.78,18229,9.13,73992.3,-8.03,-31.73,-33.95,0,*51
1517108838.01,18230,9.13,73994.5,-8.03,-31.79,-33.95,0,*53
1517108839.27,18231,9.19,73992.8,-8.03,-31.91,-34.13,0,*5D
1517108840.53,18232,9.19,73992.5,-8.03,-31.95,-34.25,0,*5F
1517108841.79,18233,9.19,73992.3,-8.03,-31.95,-34.13,0,*5B
1517108843.03,18234,9.13,73990.0,-8.05,-31.95,-34.13,0,*5A
1517108844.26,18235,9.19,73996.8,-8.05,-31.91,-34.07,0,*5A
1517108845.49,18236,9.19,73998.8,-8.05,-31.91,-33.95,0,*55
1517108846.75,18237,9.13,73992.0,-8.03,-31.95,-34.07,0,*5A
1517108847.99,18238,9.13,73996.3,-8.05,-31.95,-34.13,0,*56
1517108849.22,18239,9.13,73994.8,-8.05,-31.95,-34.25,0,*52
1517108850.45,18240,9.13,73994.3,-8.05,-31.95,-34.13,0,*59
1517108851.71,18241,9.13,73990.8,-8.07,-31.95,-34.25,0,*5F
1517108852.99,18242,9.13,73990.5,-8.07,-31.95,-34.31,0,*59
1517108854.26,18243,9.13,73994.3,-8.07,-31.95,-34.13,0,*58
1517108855.52,18244,9.13,73994.3,-8.07,-31.95,-34.13,0,*5F
1517108856.78,18245,9.13,73992.3,-8.07,-32.07,-34.25,0,*53
1517108858.04,18246,9.13,73992.0,-8.07,-32.07,-34.07,0,*50
1517108859.29,18247,9.13,73988.0,-8.11,-32.13,-34.31,0,*56
1517108860.57,18248,9.19,73990.3,-8.11,-32.19,-34.35,0,*57
1517108861.82,18249,9.13,73986.8,-8.11,-32.13,-34.19,0,*52
1517108863.06,18250,9.13,73986.0,-8.11,-32.13,-34.13,0,*50
1517108864.34,18251,9.13,73990.0,-8.11,-32.19,-34.31,0,*5B
1517108865.59,18252,9.19,73988.8,-8.11,-32.13,-34.31,0,*52
1517108866.85,18253,9.13,73990.0,-8.07,-32.07,-34.13,0,*51
1517108868.11,18254,9.19,73988.8,-8.11,-32.13,-34.31,0,*54
1517108869.39,18255,9.19,73990.5,-8.07,-31.91,-33.89,0,*5F
1517108870.68,18256,9.13,73994.0,-8.11,-31.95,-34.01,0,*58
1517108871.92,18257,9.13,73990.8,-8.11,-32.01,-34.13,0,*54
1517108873.21,18258,9.13,73992.0,-8.11,-31.85,-34.01,0,*57
1517108874.47,18259,9.19,73994.8,-8.11,-31.79,-33.89,0,*52
1517108875.73,18260,9.13,73990.5,-8.11,-31.95,-33.95,0,*57
1517108876.99,18261,9.13,73994.8,-8.11,-32.01,-34.19,0,*5B
1517108878.25,18262,9.13,73992.5,-8.07,-31.95,-34.07,0,*5E
1517108879.51,18263,9.19,73994.3,-8.11,-32.01,-34.19,0,*59
1517108880.77,18264,9.13,73988.3,-8.11,-32.01,-34.19,0,*5E
1517108882.03,18265,9.13,73986.3,-8.11,-32.01,-34.19,0,*5F
1517108883.29,18266,9.13,73986.8,-8.13,-32.07,-34.19,0,*58
1517108884.54,18267,9.13,73988.5,-8.13,-32.19,-34.35,0,*58
1517108885.76,18268,9.13,73992.5,-8.13,-32.23,-34.35,0,*5E
1517108887.0,18269,9.13,74004.3,-8.13,-32.23,-34.53,0,*5F
1517108888.25,18270,9.13,74006.8,-8.13,-32.19,-34.19,0,*50
1517108889.48,18271,9.13,74004.8,-8.13,-32.19,-34.25,0,*5E
1517108890.73,18272,9.19,74008.3,-8.13,-32.19,-34.35,0,*5C
1517108891.99,18273,9.13,74010.5,-8.13,-32.07,-34.19,0,*5C
1517108893.22,18274,9.13,74010.3,-8.13,-32.07,-34.25,0,*54
1517108894.45,18275,9.19,74014.3,-8.13,-32.07,-34.25,0,*55
1517108895.67,18276,9.13,74012.3,-8.13,-32.19,-34.25,0,*59
1517108896.87,18277,9.13,74014.0,-8.13,-32.23,-34.25,0,*51
1517108898.15,18278,9.13,74008.3,-8.11,-32.29,-34.19,0,*59
1517108899.38,18279,9.13,74002.8,-8.11,-32.01,-33.95,0,*51
1517108900.67,18280,9.13,74002.0,-8.11,-31.61,-33.61,0,*59
1517108901.93,18281,9.13,73996.8,-8.11,-32.01,-33.89,0,*5B
1517108903.19,18282,9.13,73992.5,-8.07,-31.95,-34.07,0,*50
1517108904.46,18283,9.19,73990.8,-8.11,-32.29,-34.19,0,*5D
1517108905.74,18284,9.19,73988.3,-8.11,-32.29,-34.19,0,*5A
1517108906.99,18285,9.13,73988.0,-8.11,-32.35,-34.31,0,*5C
1517108908.23,18286,9.19,73990.3,-8.11,-32.35,-34.31,0,*5F
1517108909.44,18287,9.13,73988.0,-8.13,-32.57,-34.41,0,*5F